Location: Rounton
(54.4000°N, 1.3500°W)
Time: 13:21:31
(UTC+00:00)

Transit 2A - Pass Details

Date: 30 November 2021
Orbit: 591 x 967 km, 66.7° (Epoch: 21 January)

Event Time Altitude Azimuth Distance (km) Brightness Sun altitude
Rises 02:37:05 0° 235° (SW) 3,372 - -45.2°
Reaches altitude 10° 02:39:29 10° 239° (WSW) 2,493 - -44.9°
Maximum altitude 02:45:16 61° 320° (NW) 1,038 - -44.2°
Exits shadow 02:49:51 19° 36° (NE) 2,101 8.6 -43.6°
Drops below altitude 10° 02:51:32 10° 40° (NE) 2,690 9.3 -43.4°
Sets 02:54:12 0° 44° (NE) 3,657 10.2 -43.0°
